Location: Arroyo Grande
(40.2671°N, 4.2512°W)
Time: 00:02:33
(UTC+00:00)

Cosmos 2278 Rocket - Pass Details

Date: 01 October 2023
Orbit: 842 x 844 km, 71.0° (Epoch: 03 December)

Event Time Altitude Azimuth Distance (km) Brightness Sun altitude
Rises 20:58:09 0° 320° (NW) 3,408 6.3 -33.8°
Reaches altitude 10° 21:01:17 10° 303° (WNW) 2,468 5.4 -34.3°
Maximum altitude 21:05:06 19° 260° (W) 1,909 4.4 -34.9°
Enters shadow 21:07:16 15° 233° (SW) 2,100 4.4 -35.3°
